![]() |
EMODnet Physics ERDDAP
Easier access to scientific data |
log in|
Brought to you by EMODnet Physics |
| Dataset Title: | NDBC - Collection of dew point temperature (DEWT) TimeSeries - IN SITU MultiPointTimeSeriesObservation
|
| Institution: | NDBC (Dataset ID: TS_DEWT_NDBC) |
| Information: | Summary
| License
| FGDC
| ISO 19115
| Metadata
| Background
| Subset
| Data Access Form
| Make a graph
|
| Name | Last modified | Size | Description | |
|---|---|---|---|---|
| Parent Directory | - | - | ||
| CNII2_TS_DEWT_012013.nc | 08-Dec-2024 18:37 | 429553 | ||
| CNII2_TS_DEWT_012014.nc | 08-Dec-2024 18:40 | 427927 | ||
| CNII2_TS_DEWT_012015.nc | 08-Dec-2024 18:43 | 429908 | ||
| CNII2_TS_DEWT_012016.nc | 08-Dec-2024 18:46 | 427776 | ||
| CNII2_TS_DEWT_012017.nc | 08-Dec-2024 18:48 | 429925 | ||
| CNII2_TS_DEWT_012018.nc | 08-Dec-2024 18:51 | 427350 | ||
| CNII2_TS_DEWT_012019.nc | 08-Dec-2024 18:54 | 429403 | ||
| CNII2_TS_DEWT_012020.nc | 08-Dec-2024 18:56 | 429212 | ||
| CNII2_TS_DEWT_012021.nc | 08-Dec-2024 18:59 | 427804 | ||
| CNII2_TS_DEWT_012022.nc | 08-Dec-2024 19:01 | 429568 | ||
| CNII2_TS_DEWT_012023.nc | 08-Dec-2024 19:04 | 429107 | ||
| CNII2_TS_DEWT_012024.nc | 08-Dec-2024 19:06 | 429884 | ||
| CNII2_TS_DEWT_012025.nc | 07-Feb-2025 09:43 | 429909 | ||
| CNII2_TS_DEWT_012026.nc | 02-Feb-2026 14:40 | 429907 | ||
| CNII2_TS_DEWT_022013.nc | 08-Dec-2024 18:37 | 429751 | ||
| CNII2_TS_DEWT_022014.nc | 08-Dec-2024 18:40 | 425257 | ||
| CNII2_TS_DEWT_022015.nc | 08-Dec-2024 18:43 | 1264931 | ||
| CNII2_TS_DEWT_022016.nc | 08-Dec-2024 18:46 | 1033629 | ||
| CNII2_TS_DEWT_022017.nc | 08-Dec-2024 18:48 | 1114031 | ||
| CNII2_TS_DEWT_022018.nc | 08-Dec-2024 18:51 | 1265765 | ||
| CNII2_TS_DEWT_022019.nc | 08-Dec-2024 18:54 | 1262964 | ||
| CNII2_TS_DEWT_022020.nc | 08-Dec-2024 18:56 | 1263143 | ||
| CNII2_TS_DEWT_022021.nc | 08-Dec-2024 18:59 | 4840821 | ||
| CNII2_TS_DEWT_022022.nc | 08-Dec-2024 19:01 | 3403744 | ||
| CNII2_TS_DEWT_022023.nc | 08-Dec-2024 19:04 | 1024527 | ||
| CNII2_TS_DEWT_022025.nc | 01-Mar-2025 04:37 | 1026303 | ||
| CNII2_TS_DEWT_022026.nc | 01-Mar-2026 15:08 | 1105859 | ||
| CNII2_TS_DEWT_032013.nc | 08-Dec-2024 18:38 | 1029630 | ||
| CNII2_TS_DEWT_032014.nc | 08-Dec-2024 18:40 | 1027207 | ||
| CNII2_TS_DEWT_032015.nc | 08-Dec-2024 18:43 | 1025505 | ||
| CNII2_TS_DEWT_032016.nc | 08-Dec-2024 18:46 | 3191982 | ||
| CNII2_TS_DEWT_032017.nc | 08-Dec-2024 18:49 | 4821237 | ||
| CNII2_TS_DEWT_032018.nc | 08-Dec-2024 18:51 | 1263558 | ||
| CNII2_TS_DEWT_032019.nc | 08-Dec-2024 18:54 | 1265487 | ||
| CNII2_TS_DEWT_032020.nc | 08-Dec-2024 18:57 | 1115569 | ||
| CNII2_TS_DEWT_032021.nc | 08-Dec-2024 18:59 | 989675 | ||
| CNII2_TS_DEWT_032022.nc | 08-Dec-2024 19:01 | 1264228 | ||
| CNII2_TS_DEWT_032023.nc | 08-Dec-2024 19:05 | 1266809 | ||
| CNII2_TS_DEWT_032025.nc | 02-Apr-2025 03:39 | 4278784 | ||
| CNII2_TS_DEWT_032026.nc | 25-Mar-2026 18:03 | 3952813 | ||
| CNII2_TS_DEWT_042013.nc | 08-Dec-2024 18:38 | 1112836 | ||
| CNII2_TS_DEWT_042014.nc | 08-Dec-2024 18:41 | 1028428 | ||
| CNII2_TS_DEWT_042015.nc | 08-Dec-2024 18:43 | 1113248 | ||
| CNII2_TS_DEWT_042016.nc | 08-Dec-2024 18:46 | 1110647 | ||
| CNII2_TS_DEWT_042017.nc | 08-Dec-2024 18:49 | 1112781 | ||
| CNII2_TS_DEWT_042018.nc | 08-Dec-2024 18:52 | 1111684 | ||
| CNII2_TS_DEWT_042019.nc | 08-Dec-2024 18:54 | 4705793 | ||
| CNII2_TS_DEWT_042020.nc | 08-Dec-2024 18:57 | 1264845 | ||
| CNII2_TS_DEWT_042021.nc | 08-Dec-2024 18:59 | 1266330 | ||
| CNII2_TS_DEWT_042022.nc | 08-Dec-2024 19:02 | 1263226 | ||
| CNII2_TS_DEWT_042023.nc | 08-Dec-2024 19:05 | 1263834 | ||
| CNII2_TS_DEWT_042025.nc | 01-May-2025 04:53 | 1106162 | ||
| CNII2_TS_DEWT_052012.nc | 08-Dec-2024 18:36 | 1118163 | ||
| CNII2_TS_DEWT_052013.nc | 08-Dec-2024 18:38 | 5457159 | ||
| CNII2_TS_DEWT_052014.nc | 08-Dec-2024 18:41 | 1108633 | ||
| CNII2_TS_DEWT_052015.nc | 08-Dec-2024 18:44 | 1109761 | ||
| CNII2_TS_DEWT_052016.nc | 08-Dec-2024 18:47 | 1103452 | ||
| CNII2_TS_DEWT_052017.nc | 08-Dec-2024 18:49 | 1109767 | ||
| CNII2_TS_DEWT_052018.nc | 08-Dec-2024 18:52 | 1112302 | ||
| CNII2_TS_DEWT_052019.nc | 08-Dec-2024 18:54 | 1110784 | ||
| CNII2_TS_DEWT_052020.nc | 08-Dec-2024 18:57 | 5244003 | ||
| CNII2_TS_DEWT_052021.nc | 08-Dec-2024 18:59 | 1261544 | ||
| CNII2_TS_DEWT_052022.nc | 08-Dec-2024 19:02 | 1263412 | ||
| CNII2_TS_DEWT_052024.nc | 04-Jan-2025 05:42 | 1115957 | ||
| CNII2_TS_DEWT_052025.nc | 01-Jun-2025 06:26 | 1262970 | ||
| CNII2_TS_DEWT_062012.nc | 08-Dec-2024 18:36 | 1261469 | ||
| CNII2_TS_DEWT_062013.nc | 08-Dec-2024 18:38 | 1261316 | ||
| CNII2_TS_DEWT_062014.nc | 08-Dec-2024 18:41 | 4754112 | ||
| CNII2_TS_DEWT_062015.nc | 08-Dec-2024 18:44 | 1258898 | ||
| CNII2_TS_DEWT_062016.nc | 08-Dec-2024 18:47 | 1261633 | ||
| CNII2_TS_DEWT_062017.nc | 08-Dec-2024 18:49 | 1115615 | ||
| CNII2_TS_DEWT_062018.nc | 08-Dec-2024 18:52 | 1261659 | ||
| CNII2_TS_DEWT_062019.nc | 08-Dec-2024 18:55 | 1259570 | ||
| CNII2_TS_DEWT_062020.nc | 08-Dec-2024 18:57 | 1259649 | ||
| CNII2_TS_DEWT_062021.nc | 08-Dec-2024 18:59 | 5514585 | ||
| CNII2_TS_DEWT_062022.nc | 08-Dec-2024 19:02 | 1112279 | ||
| CNII2_TS_DEWT_062024.nc | 17-Jan-2025 07:00 | 1110249 | ||
| CNII2_TS_DEWT_062025.nc | 17-Jun-2025 05:08 | 1111510 | ||
| CNII2_TS_DEWT_072012.nc | 08-Dec-2024 18:36 | 1106809 | ||
| CNII2_TS_DEWT_072013.nc | 08-Dec-2024 18:39 | 1106990 | ||
| CNII2_TS_DEWT_072014.nc | 08-Dec-2024 18:41 | 1110018 | ||
| CNII2_TS_DEWT_072015.nc | 08-Dec-2024 18:44 | 4700563 | ||
| CNII2_TS_DEWT_072016.nc | 08-Dec-2024 18:47 | 1263967 | ||
| CNII2_TS_DEWT_072017.nc | 08-Dec-2024 18:50 | 1263268 | ||
| CNII2_TS_DEWT_072018.nc | 08-Dec-2024 18:52 | 1262932 | ||
| CNII2_TS_DEWT_072019.nc | 08-Dec-2024 18:55 | 1113356 | ||
| CNII2_TS_DEWT_072020.nc | 08-Dec-2024 18:57 | 1259619 | ||
| CNII2_TS_DEWT_072021.nc | 08-Dec-2024 19:00 | 1260470 | ||
| CNII2_TS_DEWT_072022.nc | 08-Dec-2024 19:03 | 5560978 | ||
| CNII2_TS_DEWT_072024.nc | 17-Jan-2025 07:01 | 1111023 | ||
| CNII2_TS_DEWT_072025.nc | 16-Aug-2025 05:17 | 1110056 | ||
| CNII2_TS_DEWT_082012.nc | 08-Dec-2024 18:36 | 1029262 | ||
| CNII2_TS_DEWT_082013.nc | 08-Dec-2024 18:39 | 1113684 | ||
| CNII2_TS_DEWT_082014.nc | 08-Dec-2024 18:42 | 1110295 | ||
| CNII2_TS_DEWT_082015.nc | 08-Dec-2024 18:44 | 1112479 | ||
| CNII2_TS_DEWT_082016.nc | 08-Dec-2024 18:47 | 5689575 | ||
| CNII2_TS_DEWT_082017.nc | 08-Dec-2024 18:50 | 5095788 | ||
| CNII2_TS_DEWT_082018.nc | 08-Dec-2024 18:53 | 639126 | ||
| CNII2_TS_DEWT_082019.nc | 08-Dec-2024 18:55 | 1026035 | ||
| CNII2_TS_DEWT_082020.nc | 08-Dec-2024 18:58 | 1263159 | ||
| CNII2_TS_DEWT_082021.nc | 08-Dec-2024 19:00 | 1111657 | ||
| CNII2_TS_DEWT_082022.nc | 08-Dec-2024 19:03 | 1263736 | ||
| CNII2_TS_DEWT_082024.nc | 17-Jan-2025 07:01 | 1261740 | ||
| CNII2_TS_DEWT_082025.nc | 01-Sep-2025 05:48 | 1108280 | ||
| CNII2_TS_DEWT_092012.nc | 08-Dec-2024 18:36 | 5575742 | ||
| CNII2_TS_DEWT_092013.nc | 08-Dec-2024 18:39 | 5242698 | ||
| CNII2_TS_DEWT_092014.nc | 08-Dec-2024 18:42 | 1144242 | ||
| CNII2_TS_DEWT_092015.nc | 08-Dec-2024 18:45 | 1263511 | ||
| CNII2_TS_DEWT_092016.nc | 08-Dec-2024 18:47 | 1113760 | ||
| CNII2_TS_DEWT_092017.nc | 08-Dec-2024 18:50 | 1267793 | ||
| CNII2_TS_DEWT_092018.nc | 08-Dec-2024 18:53 | 1266976 | ||
| CNII2_TS_DEWT_092019.nc | 08-Dec-2024 18:55 | 1262951 | ||
| CNII2_TS_DEWT_092020.nc | 08-Dec-2024 18:58 | 1025972 | ||
| CNII2_TS_DEWT_092021.nc | 08-Dec-2024 19:00 | 4344708 | ||
| CNII2_TS_DEWT_092022.nc | 08-Dec-2024 19:03 | 3401417 | ||
| CNII2_TS_DEWT_092023.nc | 08-Dec-2024 19:05 | 917602 | ||
| CNII2_TS_DEWT_092024.nc | 17-Jan-2025 07:01 | 1027603 | ||
| CNII2_TS_DEWT_092025.nc | 01-Oct-2025 05:37 | 1028576 | ||
| CNII2_TS_DEWT_102012.nc | 08-Dec-2024 18:37 | 1029783 | ||
| CNII2_TS_DEWT_102013.nc | 08-Dec-2024 18:39 | 1027607 | ||
| CNII2_TS_DEWT_102014.nc | 08-Dec-2024 18:42 | 1028141 | ||
| CNII2_TS_DEWT_102015.nc | 08-Dec-2024 18:45 | 423400 | ||
| CNII2_TS_DEWT_102016.nc | 08-Dec-2024 18:48 | 3112377 | ||
| CNII2_TS_DEWT_102017.nc | 08-Dec-2024 18:50 | 4548249 | ||
| CNII2_TS_DEWT_102018.nc | 08-Dec-2024 18:53 | 1144273 | ||
| CNII2_TS_DEWT_102019.nc | 08-Dec-2024 18:55 | 1264324 | ||
| CNII2_TS_DEWT_102020.nc | 08-Dec-2024 18:58 | 1118219 | ||
| CNII2_TS_DEWT_102021.nc | 08-Dec-2024 19:00 | 992683 | ||
| CNII2_TS_DEWT_102022.nc | 08-Dec-2024 19:03 | 1265419 | ||
| CNII2_TS_DEWT_102023.nc | 08-Dec-2024 19:05 | 1267534 | ||
| CNII2_TS_DEWT_102024.nc | 17-Jan-2025 07:01 | 4396504 | ||
| CNII2_TS_DEWT_102025.nc | 01-Nov-2025 05:30 | 3287738 | ||
| CNII2_TS_DEWT_112012.nc | 08-Dec-2024 18:37 | 996193 | ||
| CNII2_TS_DEWT_112013.nc | 08-Dec-2024 18:39 | 1030410 | ||
| CNII2_TS_DEWT_112014.nc | 08-Dec-2024 18:42 | 1029991 | ||
| CNII2_TS_DEWT_112015.nc | 08-Dec-2024 18:45 | 1112475 | ||
| CNII2_TS_DEWT_112016.nc | 08-Dec-2024 18:48 | 1110999 | ||
| CNII2_TS_DEWT_112017.nc | 08-Dec-2024 18:50 | 1115261 | ||
| CNII2_TS_DEWT_112018.nc | 08-Dec-2024 18:53 | 4717225 | ||
| CNII2_TS_DEWT_112019.nc | 08-Dec-2024 18:56 | 996854 | ||
| CNII2_TS_DEWT_112020.nc | 08-Dec-2024 18:58 | 1264888 | ||
| CNII2_TS_DEWT_112021.nc | 08-Dec-2024 19:00 | 1265164 | ||
| CNII2_TS_DEWT_112022.nc | 08-Dec-2024 19:04 | 1265611 | ||
| CNII2_TS_DEWT_112023.nc | 08-Dec-2024 19:05 | 1269943 | ||
| CNII2_TS_DEWT_112024.nc | 17-Jan-2025 16:33 | 1266093 | ||
| CNII2_TS_DEWT_112025.nc | 01-Dec-2025 09:12 | 5357711 | ||
| CNII2_TS_DEWT_122012.nc | 08-Dec-2024 18:37 | 996029 | ||
| CNII2_TS_DEWT_122013.nc | 08-Dec-2024 18:40 | 1112172 | ||
| CNII2_TS_DEWT_122014.nc | 08-Dec-2024 18:42 | 1104079 | ||
| CNII2_TS_DEWT_122015.nc | 08-Dec-2024 18:45 | 1111157 | ||
| CNII2_TS_DEWT_122016.nc | 08-Dec-2024 18:48 | 1110835 | ||
| CNII2_TS_DEWT_122017.nc | 08-Dec-2024 18:51 | 1109492 | ||
| CNII2_TS_DEWT_122018.nc | 08-Dec-2024 18:53 | 5228547 | ||
| CNII2_TS_DEWT_122019.nc | 08-Dec-2024 18:56 | 1262660 | ||
| CNII2_TS_DEWT_122020.nc | 08-Dec-2024 18:58 | 1263413 | ||
| CNII2_TS_DEWT_122021.nc | 08-Dec-2024 19:01 | 1112527 | ||
| CNII2_TS_DEWT_122022.nc | 08-Dec-2024 19:04 | 1260248 | ||
| CNII2_TS_DEWT_122023.nc | 08-Dec-2024 19:06 | 1261551 | ||
| CNII2_TS_DEWT_122024.nc | 22-Jan-2025 17:33 | 1261367 | ||
| CNII2_TS_DEWT_122025.nc | 01-Jan-2026 09:56 | 4781187 | ||